• în România
  • Lista ţărilor
  • Pe 7 zile
  • Temperatura apei
  • Hartă satelitară
  • Meteo pe hartă
  • Widget-uri
  • user-avatar
    Intrare

    Meteo pe oră la Naftalan

    Astăzi, 26 Martie, Duminică

    Timp Temperatura Precipitaţii Vânt Presiune Umiditate
    00:00 +6°C° 0 mm 5 m/s 765 mmHg 90%
    01:00 +5°C° 0 mm 5 m/s 765 mmHg 91%
    02:00 +5°C° 0 mm 5 m/s 765 mmHg 92%
    03:00 +5°C° 0 mm 4 m/s 765 mmHg 92%
    04:00 +5°C° 0 mm 4 m/s 765 mmHg 93%
    05:00 +5°C° 0 mm 4 m/s 765 mmHg 93%
    06:00 +4°C° 0 mm 4 m/s 765 mmHg 93%
    07:00 +7°C° 0 mm 4 m/s 765 mmHg 84%
    08:00 +10°C° 0 mm 4 m/s 765 mmHg 74%
    09:00 +13°C° 0 mm 4 m/s 765 mmHg 65%
    10:00 +14°C° 0 mm 4 m/s 765 mmHg 59%
    11:00 +16°C° 0 mm 3 m/s 764 mmHg 54%
    12:00 +18°C° 0 mm 3 m/s 764 mmHg 49%
    13:00 +18°C° 0 mm 4 m/s 763 mmHg 49%
    14:00 +18°C° 0 mm 4 m/s 763 mmHg 49%
    15:00 +17°C° 0 mm 5 m/s 763 mmHg 50%
    16:00 +15°C° 0 mm 5 m/s 763 mmHg 59%
    17:00 +13°C° 0 mm 5 m/s 763 mmHg 68%
    18:00 +10°C° 0 mm 5 m/s 763 mmHg 77%
    19:00 +11°C° 0 mm 4 m/s 763 mmHg 79%
    20:00 +10°C° 0 mm 4 m/s 763 mmHg 81%
    21:00 +8°C° 0 mm 4 m/s 763 mmHg 83%
    22:00 +8°C° 0 mm 4 m/s 763 mmHg 81%
    23:00 +8°C° 0 mm 4 m/s 763 mmHg 78%

    Mâine, 27 Martie, Luni

    Timp Temperatura Precipitaţii Vânt Presiune Umiditate
    00:00 +9°C° 0 mm 3 m/s 763 mmHg 76%
    01:00 +9°C° 0 mm 3 m/s 762 mmHg 74%
    02:00 +9°C° 0 mm 3 m/s 762 mmHg 71%
    03:00 +10°C° 0 mm 3 m/s 762 mmHg 68%
    04:00 +9°C° 0 mm 3 m/s 762 mmHg 65%
    05:00 +9°C° 0 mm 3 m/s 762 mmHg 62%
    06:00 +9°C° 0 mm 3 m/s 762 mmHg 58%
    07:00 +12°C° 0 mm 3 m/s 762 mmHg 52%
    08:00 +16°C° 0 mm 3 m/s 762 mmHg 45%
    09:00 +18°C° 0 mm 3 m/s 762 mmHg 38%
    10:00 +20°C° 0 mm 3 m/s 762 mmHg 36%
    11:00 +21°C° 0 mm 3 m/s 761 mmHg 33%
    12:00 +24°C° 0 mm 3 m/s 761 mmHg 30%
    13:00 +24°C° 0 mm 3 m/s 760 mmHg 32%
    14:00 +23°C° 0 mm 4 m/s 760 mmHg 33%
    15:00 +23°C° 0 mm 4 m/s 759 mmHg 34%
    16:00 +21°C° 0 mm 4 m/s 759 mmHg 43%
    17:00 +18°C° 0 mm 4 m/s 759 mmHg 51%
    18:00 +14°C° 0 mm 4 m/s 759 mmHg 59%
    19:00 +14°C° 0 mm 3 m/s 760 mmHg 60%
    20:00 +13°C° 0 mm 3 m/s 760 mmHg 60%
    21:00 +12°C° 0 mm 3 m/s 760 mmHg 61%
    22:00 +12°C° 0 mm 3 m/s 760 mmHg 62%
    23:00 +12°C° 0 mm 3 m/s 761 mmHg 62%

    Poimâine, 28 Martie, Marţi

    Timp Temperatura Precipitaţii Vânt Presiune Umiditate
    00:00 +12°C° 0 mm 3 m/s 761 mmHg 63%
    01:00 +11°C° 0 mm 3 m/s 761 mmHg 69%
    02:00 +10°C° 0 mm 4 m/s 761 mmHg 75%
    03:00 +8°C° 0 mm 4 m/s 761 mmHg 80%
    04:00 +8°C° 0 mm 5 m/s 761 mmHg 81%
    05:00 +8°C° 0 mm 6 m/s 762 mmHg 82%
    06:00 +6°C° 0 mm 7 m/s 763 mmHg 83%
    07:00 +9°C° 0 mm 7 m/s 764 mmHg 77%
    08:00 +10°C° 0 mm 8 m/s 765 mmHg 71%
    09:00 +11°C° 0 mm 8 m/s 765 mmHg 66%
    10:00 +12°C° 0 mm 8 m/s 766 mmHg 62%
    11:00 +14°C° 0 mm 7 m/s 766 mmHg 58%
    12:00 +15°C° 0 mm 7 m/s 766 mmHg 55%
    13:00 +15°C° 0 mm 6 m/s 766 mmHg 55%
    14:00 +15°C° 0 mm 6 m/s 765 mmHg 56%
    15:00 +14°C° 0 mm 5 m/s 765 mmHg 57%
    16:00 +13°C° 0 mm 5 m/s 765 mmHg 62%
    17:00 +12°C° 0 mm 4 m/s 765 mmHg 68%
    18:00 +10°C° 0 mm 3 m/s 765 mmHg 73%
    19:00 +10°C° 0 mm 3 m/s 765 mmHg 77%
    20:00 +9°C° 0 mm 3 m/s 766 mmHg 81%
    21:00 +8°C° 0 mm 2 m/s 766 mmHg 85%
    22:00 +8°C° 0 mm 2 m/s 765 mmHg 87%
    23:00 +8°C° 0 mm 2 m/s 765 mmHg 89%

    29 Martie, Miercuri

    Timp Temperatura Precipitaţii Vânt Presiune Umiditate
    00:00 +7°C° 0 mm 2 m/s 765 mmHg 90%
    01:00 +7°C° 0 mm 2 m/s 764 mmHg 88%
    02:00 +8°C° 0 mm 3 m/s 764 mmHg 86%
    03:00 +8°C° 0 mm 3 m/s 764 mmHg 84%
    04:00 +8°C° 0 mm 3 m/s 764 mmHg 79%
    05:00 +7°C° 0 mm 4 m/s 764 mmHg 73%
    06:00 +7°C° 0 mm 4 m/s 764 mmHg 68%
    07:00 +9°C° 0 mm 5 m/s 764 mmHg 58%
    08:00 +13°C° 0 mm 5 m/s 764 mmHg 48%
    09:00 +15°C° 0 mm 6 m/s 765 mmHg 38%
    10:00 +17°C° 0 mm 5 m/s 765 mmHg 36%
    11:00 +19°C° 0 mm 5 m/s 764 mmHg 34%
    12:00 +21°C° 0 mm 5 m/s 764 mmHg 32%
    13:00 +21°C° 0 mm 5 m/s 764 mmHg 33%
    14:00 +21°C° 0 mm 5 m/s 764 mmHg 34%
    15:00 +21°C° 0 mm 5 m/s 764 mmHg 35%
    16:00 +17°C° 0 mm 5 m/s 765 mmHg 45%
    17:00 +15°C° 0 mm 5 m/s 765 mmHg 55%
    18:00 +12°C° 0 mm 5 m/s 766 mmHg 65%
    19:00 +11°C° 0 mm 4 m/s 767 mmHg 70%
    20:00 +11°C° 0 mm 4 m/s 768 mmHg 74%
    21:00 +10°C° 0 mm 3 m/s 769 mmHg 78%
    22:00 +10°C° 0 mm 4 m/s 770 mmHg 79%
    23:00 +8°C° 0 mm 4 m/s 771 mmHg 81%

    30 Martie, Joi

    Timp Temperatura Precipitaţii Vânt Presiune Umiditate
    00:00 +8°C° 0 mm 4 m/s 771 mmHg 82%
    01:00 +8°C° 0 mm 5 m/s 771 mmHg 83%
    02:00 +7°C° 0 mm 5 m/s 772 mmHg 84%
    03:00 +7°C° 0 mm 6 m/s 772 mmHg 85%
    04:00 +7°C° 0 mm 6 m/s 773 mmHg 82%
    05:00 +7°C° 0 mm 5 m/s 773 mmHg 79%
    06:00 +7°C° 0 mm 5 m/s 773 mmHg 76%
    07:00 +8°C° 0 mm 6 m/s 773 mmHg 74%
    08:00 +9°C° 0 mm 6 m/s 774 mmHg 72%
    09:00 +9°C° 0 mm 6 m/s 774 mmHg 70%
    10:00 +10°C° 0 mm 6 m/s 773 mmHg 70%
    11:00 +10°C° 0 mm 5 m/s 772 mmHg 70%
    12:00 +10°C° 0 mm 5 m/s 772 mmHg 70%
    13:00 +12°C° 0 mm 5 m/s 771 mmHg 70%
    14:00 +12°C° 0 mm 5 m/s 770 mmHg 70%
    15:00 +13°C° 0 mm 5 m/s 770 mmHg 69%
    16:00 +12°C° 0 mm 4 m/s 769 mmHg 72%
    17:00 +11°C° 0 mm 4 m/s 769 mmHg 75%
    18:00 +11°C° 0 mm 3 m/s 769 mmHg 78%
    19:00 +9°C° 0 mm 2 m/s 769 mmHg 82%
    20:00 +8°C° 0 mm 2 m/s 768 mmHg 87%
    21:00 +8°C° 0 mm 1 m/s 768 mmHg 91%
    22:00 +8°C° 0 mm 1 m/s 767 mmHg 91%
    23:00 +7°C° 0 mm 2 m/s 767 mmHg 91%

    31 Martie, Vineri

    Timp Temperatura Precipitaţii Vânt Presiune Umiditate
    00:00 +7°C° 0 mm 2 m/s 766 mmHg 92%
    01:00 +7°C° 0 mm 2 m/s 765 mmHg 92%
    02:00 +7°C° 0 mm 3 m/s 765 mmHg 93%
    03:00 +7°C° 0 mm 3 m/s 764 mmHg 93%
    04:00 +7°C° 0 mm 3 m/s 764 mmHg 92%
    05:00 +7°C° 0 mm 3 m/s 764 mmHg 92%
    06:00 +7°C° 0 mm 3 m/s 764 mmHg 91%
    07:00 +9°C° 0 mm 3 m/s 764 mmHg 78%
    08:00 +12°C° 0 mm 3 m/s 763 mmHg 66%
    09:00 +16°C° 0 mm 3 m/s 763 mmHg 54%
    10:00 +17°C° 0 mm 3 m/s 763 mmHg 48%
    11:00 +19°C° 0 mm 3 m/s 763 mmHg 43%
    12:00 +21°C° 0 mm 2 m/s 762 mmHg 38%
    13:00 +21°C° 0 mm 3 m/s 762 mmHg 38%
    14:00 +21°C° 0 mm 4 m/s 762 mmHg 38%
    15:00 +22°C° 0 mm 4 m/s 762 mmHg 38%
    16:00 +19°C° 0,1 mm 5 m/s 762 mmHg 44%
    17:00 +16°C° 0,1 mm 5 m/s 763 mmHg 50%
    18:00 +14°C° 0,1 mm 6 m/s 763 mmHg 56%
    19:00 +13°C° 0 mm 6 m/s 764 mmHg 57%
    20:00 +13°C° 0 mm 6 m/s 764 mmHg 57%
    21:00 +11°C° 0 mm 6 m/s 765 mmHg 57%
    22:00 +11°C° 0,2 mm 7 m/s 765 mmHg 61%
    23:00 +10°C° 0,2 mm 8 m/s 766 mmHg 65%
    Arată mai mult